{"data":{"norad_id":41340,"intl_designator":"2016-012D","name":"HORYU-4","alt_names":[],"object_type":"PAYLOAD","status":"ACTIVE","operator":null,"country":"JPN","launch_date":"2016-02-17","launch_site_code":"TANSC","launch_vehicle":null,"mission":null,"orbit_class":"UNKNOWN","rcs_meters":0.1183,"size_class":null,"mass_kg":null,"dimensions":null,"purposes":["tech_demo"],"wikipedia_slug":null,"has_3d_model":false,"image_url":null,"decayed_at":null,"tle_current":{"epoch":"2026-07-01T19:00:28.190016Z","epoch_age_seconds":6980916,"freshness":"OLD","line1":"1 41340U 16012D   26182.79199294  .04204222 -38650-5  11151-2 0  9996","line2":"2 41340  30.9791 330.1929 0008659 346.1826  13.8606 16.27112331573161","mean_motion":16.27112331,"eccentricity":0.0008659,"inclination_deg":30.9791,"raan_deg":330.1929,"arg_perigee_deg":346.1826,"mean_anomaly_deg":13.8606,"bstar":0.0011151,"rev_number":57316,"period_min":88.500343373035,"perigee_km":194.61529131581,"apogee_km":206.00784854922,"semimajor_km":6578.4485699325,"source":"CELESTRAK","updated_at":"2026-07-04T09:00:37.071873Z"}}}